K5TWC Weather Reports


Display with metric or nautical units.
time (UTC)temp
F
wind
direction
speed
MPH
gust
MPH
rain 1hr
in
rain 24hr
in
rain mn
in
humidity
%
barometer
mb
20260507074003 55 49 1.0 6.0 0.00 0.54 0.00 88 1017.8
20260507073504 55 42 1.0 6.0 0.00 0.54 0.00 88 1017.8
20260507073014 55 55 1.0 6.0 0.00 0.54 0.00 88 1017.7
20260507072504 55 47 2.0 6.0 0.00 0.54 0.00 88 1017.9
20260507072004 55 44 0.0 4.0 0.00 0.54 0.00 88 1017.9
20260507071517 55 48 0.0 4.0 0.00 0.54 0.00 88 1017.8
20260507071004 55 51 1.0 4.0 0.00 0.54 0.00 88 1017.9
20260507070506 55 55 0.0 4.0 0.00 0.54 0.00 88 1018.0
20260507070020 55 47 1.0 4.0 0.00 0.54 0.00 88 1017.9
20260507065505 55 47 0.0 4.0 0.00 0.54 0.00 88 1017.8
20260507065006 55 51 0.0 4.0 0.00 0.54 0.00 87 1017.8
20260507064517 55 56 0.0 4.0 0.00 0.54 0.00 87 1017.8
20260507064007 55 60 0.0 4.0 0.00 0.54 0.00 87 1017.7
20260507063503 55 74 0.0 4.0 0.00 0.54 0.00 87 1017.7
20260507063018 55 62 0.0 4.0 0.00 0.54 0.00 87 1017.7
20260507062503 55 59 0.0 5.0 0.00 0.54 0.00 86 1017.7
20260507062005 55 54 0.0 5.0 0.00 0.54 0.00 86 1017.6
20260507061516 56 57 0.0 5.0 0.00 0.54 0.00 85 1017.7
20260507061006 56 57 0.0 4.0 0.00 0.54 0.00 85 1017.6
20260507060504 56 59 0.0 4.0 0.00 0.54 0.00 85 1017.5
20260507060018 56 53 0.0 4.0 0.00 0.54 0.00 84 1017.5
20260507055503 56 60 0.0 5.0 0.00 0.54 0.00 84 1017.6
20260507055007 56 66 0.0 7.0 0.00 0.54 0.00 84 1017.6
20260507054520 56 57 1.0 7.0 0.00 0.54 0.00 84 1017.6
20260507054008 57 63 0.0 6.0 0.00 0.54 0.00 83 1017.6
20260507053508 57 61 2.0 7.0 0.00 0.54 0.00 83 1017.6
20260507053020 57 45 1.0 9.0 0.00 0.54 0.00 83 1017.6
20260507052504 57 100 3.0 9.0 0.00 0.54 0.00 82 1017.7
20260507052004 57 92 2.0 6.0 0.00 0.54 0.00 82 1017.7
20260507051512 57 41 1.0 9.0 0.00 0.54 0.00 82 1017.8
20260507051008 57 90 2.0 9.0 0.00 0.54 0.00 82 1017.7
20260507050505 57 64 2.0 6.0 0.00 0.54 0.00 82 1017.7
20260507050026 58 59 2.0 6.0 0.00 0.54 0.00 82 1017.7
20260507045506 58 69 1.0 10.0 0.00 0.54 0.54 82 1017.7
20260507045005 58 98 1.0 10.0 0.00 0.54 0.54 82 1017.6
20260507044520 58 33 3.0 10.0 0.00 0.54 0.54 82 1017.7
20260507044008 58 59 0.0 6.0 0.00 0.54 0.54 82 1017.7
20260507043506 58 60 2.0 6.0 0.00 0.54 0.54 82 1017.7
20260507043018 59 59 2.0 8.0 0.00 0.54 0.54 82 1017.8
20260507042504 59 59 1.0 9.0 0.00 0.54 0.54 82 1018.0
20260507042006 59 30 3.0 10.0 0.00 0.54 0.54 81 1018.1
20260507041522 59 16 4.0 10.0 0.00 0.54 0.54 81 1018.1
20260507041007 59 66 4.0 10.0 0.00 0.54 0.54 81 1018.2
20260507040503 59 50 3.0 10.0 0.00 0.54 0.54 81 1018.2
20260507040013 59 52 3.0 9.0 0.00 0.54 0.54 81 1018.0
20260507035504 59 84 4.0 9.0 0.00 0.54 0.54 81 1018.1
20260507035007 59 63 1.0 11.0 0.00 0.54 0.54 81 1018.1
20260507034520 59 64 5.0 11.0 0.00 0.54 0.54 81 1018.1
20260507034010 59 32 3.0 10.0 0.00 0.54 0.54 81 1018.2
20260507033507 59 54 4.0 12.0 0.00 0.54 0.54 80 1018.1
20260507033022 59 15 3.0 12.0 0.00 0.54 0.54 81 1017.9
20260507032509 59 50 5.0 12.0 0.00 0.54 0.54 81 1017.9
20260507032008 59 77 6.0 12.0 0.00 0.54 0.54 81 1017.9
20260507031522 59 43 3.0 10.0 0.00 0.54 0.54 81 1017.8
20260507031008 59 9 5.0 11.0 0.00 0.54 0.54 81 1017.7
20260507030508 59 35 4.0 11.0 0.00 0.54 0.54 81 1017.6
20260507030019 59 51 4.0 11.0 0.00 0.54 0.54 81 1017.4
20260507025509 59 61 3.0 10.0 0.00 0.54 0.54 82 1017.4
20260507025004 59 84 3.0 9.0 0.00 0.54 0.54 82 1017.2
20260507024516 59 22 2.0 8.0 0.00 0.54 0.54 82 1017.2
20260507024005 59 51 1.0 8.0 0.00 0.54 0.54 82 1017.1
20260507023508 59 76 1.0 10.0 0.00 0.54 0.54 82 1017.0
20260507023020 59 55 3.0 10.0 0.00 0.54 0.54 83 1016.8
20260507022509 59 18 1.0 6.0 0.00 0.54 0.54 83 1016.7
20260507022007 59 63 2.0 8.0 0.00 0.54 0.54 83 1016.7
20260507021524 59 350 1.0 9.0 0.00 0.54 0.54 83 1016.7
20260507021008 59 22 2.0 9.0 0.00 0.54 0.54 82 1016.6
20260507020509 59 50 4.0 9.0 0.00 0.54 0.54 83 1016.5
20260507020022 59 355 3.0 7.0 0.00 0.54 0.54 83 1016.4
20260507015504 59 81 2.0 11.0 0.00 0.54 0.54 84 1016.4
20260507015004 59 37 2.0 13.0 0.00 0.54 0.54 84 1016.3
20260507014518 59 78 6.0 14.0 0.00 0.54 0.54 84 1016.2
20260507014005 59 37 3.0 14.0 0.00 0.54 0.54 84 1015.9
20260507013504 59 42 3.0 11.0 0.00 0.54 0.54 84 1015.9
20260507013017 59 327 4.0 11.0 0.00 0.54 0.54 84 1015.9
20260507012508 59 98 3.0 10.0 0.00 0.54 0.54 84 1015.7
20260507012010 59 51 4.0 9.0 0.00 0.54 0.54 85 1015.7
20260507011522 59 55 4.0 9.0 0.00 0.54 0.54 85 1015.5
20260507011010 59 32 3.0 9.0 0.00 0.54 0.54 85 1015.4
20260507010510 59 61 3.0 10.0 0.00 0.54 0.54 85 1015.3
20260507010024 59 39 2.0 10.0 0.00 0.54 0.54 86 1015.5
20260507005507 59 46 2.0 7.0 0.00 0.54 0.54 86 1015.5
20260507005006 59 360 2.0 7.0 0.00 0.54 0.54 86 1015.5
20260507004516 58 20 2.0 7.0 0.00 0.54 0.54 86 1015.4
20260507004010 58 25 1.0 8.0 0.00 0.54 0.54 86 1015.2
20260507003504 58 27 4.0 8.0 0.00 0.54 0.54 86 1015.2
20260507003014 58 17 3.0 8.0 0.01 0.54 0.54 86 1015.3
20260507002506 58 37 2.0 5.0 0.01 0.54 0.54 86 1015.2
20260507002007 58 59 1.0 7.0 0.01 0.54 0.54 86 1015.1
20260507001525 58 52 2.0 9.0 0.01 0.54 0.54 86 1015.0
20260507001007 58 29 2.0 9.0 0.01 0.54 0.54 85 1015.0
20260507000506 58 64 2.0 8.0 0.01 0.54 0.54 85 1014.9
20260507000032 58 51 3.0 10.0 0.01 0.54 0.54 85 1015.0
20260506235508 58 45 3.0 10.0 0.01 0.54 0.54 85 1015.0
20260506235007 58 70 1.0 10.0 0.01 0.54 0.54 85 1015.0
20260506234524 59 51 2.0 10.0 0.01 0.54 0.54 85 1015.0
20260506234011 59 5 1.0 10.0 0.01 0.54 0.54 84 1015.0
20260506233503 59 321 4.0 10.0 0.02 0.54 0.54 84 1014.9
20260506233012 59 346 2.0 7.0 0.01 0.52 0.52 85 1014.8
20260506232504 59 351 3.0 9.0 0.01 0.52 0.52 84 1014.7
20260506232004 59 320 2.0 9.0 0.01 0.52 0.52 84 1014.6
20260506231517 59 360 2.0 9.0 0.01 0.52 0.52 84 1014.8
20260506231008 59 360 4.0 9.0 0.01 0.52 0.52 84 1014.5
20260506230507 59 9 4.0 11.0 0.02 0.52 0.52 84 1014.5
20260506230023 59 65 4.0 11.0 0.02 0.52 0.52 84 1014.2
20260506225510 58 26 1.0 10.0 0.02 0.52 0.52 84 1014.5
20260506225008 58 360 3.0 10.0 0.02 0.52 0.52 84 1014.7
20260506224524 58 54 1.0 8.0 0.02 0.52 0.52 84 1014.8
20260506224009 58 360 3.0 8.0 0.02 0.52 0.52 84 1014.7
20260506223507 58 22 1.0 8.0 0.01 0.52 0.52 84 1014.5
20260506223024 58 76 3.0 8.0 0.02 0.52 0.52 84 1014.8
20260506222507 58 47 2.0 8.0 0.02 0.52 0.52 84 1014.6
20260506222006 58 41 2.0 8.0 0.02 0.52 0.52 85 1014.5
20260506221513 58 11 1.0 10.0 0.02 0.52 0.52 84 1014.4
20260506221012 58 51 2.0 10.0 0.03 0.52 0.52 84 1014.1
20260506220507 58 68 2.0 8.0 0.02 0.51 0.51 84 1014.1
20260506220022 58 60 3.0 10.0 0.02 0.51 0.51 84 1014.4
20260506215507 58 40 4.0 10.0 0.02 0.51 0.51 83 1014.2
20260506215007 59 339 3.0 8.0 0.02 0.51 0.51 83 1014.3
20260506214521 59 325 3.0 9.0 0.02 0.51 0.51 83 1014.1
20260506214007 59 348 3.0 11.0 0.03 0.51 0.51 82 1014.4
20260506213508 59 281 2.0 11.0 0.03 0.51 0.51 83 1014.1
20260506213025 59 348 3.0 9.0 0.02 0.50 0.50 82 1013.9
20260506212507 59 329 2.0 10.0 0.02 0.50 0.50 83 1014.3
20260506212009 59 313 2.0 10.0 0.03 0.50 0.50 83 1014.3
20260506211527 59 32 2.0 9.0 0.03 0.50 0.50 83 1014.3
20260506211010 59 34 3.0 9.0 0.02 0.49 0.49 83 1014.1
20260506210504 59 330 1.0 9.0 0.02 0.49 0.49 83 1014.2
20260506210015 59 49 3.0 9.0 0.02 0.49 0.49 84 1014.3
20260506205507 59 313 3.0 9.0 0.02 0.49 0.49 84 1014.2
20260506205004 59 333 4.0 10.0 0.02 0.49 0.49 83 1014.3
20260506204524 59 301 4.0 10.0 0.03 0.49 0.49 84 1014.6
20260506204006 58 46 2.0 11.0 0.02 0.48 0.48 84 1014.6
20260506203517 58 311 5.0 11.0 0.02 0.48 0.48 85 1014.5
20260506203022 58 334 3.0 8.0 0.03 0.48 0.48 85 1014.6
20260506202507 58 360 3.0 8.0 0.03 0.48 0.48 86 1014.7
20260506202011 57 306 2.0 7.0 0.02 0.47 0.47 85 1014.9
20260506201526 57 360 3.0 5.0 0.02 0.47 0.47 85 1015.2
20260506201008 57 343 1.0 9.0 0.02 0.47 0.47 85 1015.2
20260506200512 57 61 1.0 9.0 0.02 0.47 0.47 85 1015.2
20260506200026 58 342 2.0 9.0 0.03 0.47 0.47 86 1015.0
20260506195507 57 21 3.0 10.0 0.03 0.47 0.47 87 1014.7
20260506195006 57 328 4.0 10.0 0.03 0.47 0.47 88 1014.6
20260506194518 57 350 4.0 10.0 0.03 0.46 0.46 88 1014.7
20260506194006 56 347 3.0 7.0 0.03 0.46 0.46 88 1015.0
20260506193505 56 40 1.0 5.0 0.03 0.46 0.46 88 1015.0
20260506193019 56 329 0.0 4.0 0.02 0.45 0.45 88 1015.2
20260506192511 56 331 0.0 5.0 0.03 0.45 0.45 88 1015.4
20260506192013 56 324 2.0 9.0 0.03 0.45 0.45 88 1015.4
20260506191524 56 9 2.0 9.0 0.04 0.45 0.45 88 1015.3
20260506191007 56 314 2.0 9.0 0.04 0.45 0.45 88 1015.4
20260506190508 56 317 2.0 8.0 0.04 0.45 0.45 88 1015.3
20260506190024 56 313 1.0 8.0 0.04 0.44 0.44 88 1015.2
20260506185506 56 360 3.0 7.0 0.04 0.44 0.44 88 1015.4
20260506185011 56 355 2.0 6.0 0.05 0.44 0.44 88 1015.1
20260506184525 56 49 0.0 5.0 0.04 0.43 0.43 89 1015.1
20260506184009 56 38 0.0 10.0 0.05 0.43 0.43 89 1014.9
20260506183507 56 52 2.0 11.0 0.05 0.43 0.43 89 1014.6
20260506183019 55 52 3.0 11.0 0.06 0.43 0.43 89 1014.2
20260506182506 55 22 3.0 13.0 0.05 0.42 0.42 89 1013.8
20260506182007 55 25 4.0 14.0 0.06 0.42 0.42 89 1013.7
20260506181523 55 360 5.0 14.0 0.06 0.41 0.41 90 1013.5
20260506181010 55 320 3.0 12.0 0.06 0.41 0.41 90 1013.5
20260506180510 55 30 4.0 12.0 0.07 0.41 0.41 90 1013.5
20260506180029 55 325 2.0 12.0 0.07 0.40 0.40 91 1013.6
20260506175502 55 46 3.0 12.0 0.08 0.40 0.40 91 1013.9
20260506175003 55 13 1.0 10.0 0.08 0.39 0.39 91 1014.2
20260506174512 55 67 3.0 10.0 0.08 0.39 0.39 91 1014.2
20260506174004 54 15 2.0 9.0 0.09 0.38 0.38 91 1014.3
20260506173505 54 36 3.0 11.0 0.09 0.38 0.38 90 1014.6
20260506173014 54 34 5.0 11.0 0.10 0.37 0.37 90 1015.0
20260506172503 54 71 2.0 11.0 0.11 0.37 0.37 90 1015.1
20260506172007 54 56 3.0 9.0 0.11 0.36 0.36 90 1015.2
20260506171523 54 23 1.0 9.0 0.12 0.35 0.35 91 1015.2
20260506171008 54 65 3.0 11.0 0.13 0.35 0.35 91 1015.4
20260506170507 54 340 4.0 11.0 0.14 0.34 0.34 91 1014.6
20260506170004 54 34 2.0 8.0 0.15 0.33 0.33 91 1014.8
20260506165503 54 31 2.0 10.0 0.16 0.32 0.32 91 1014.9
20260506165003 54 340 2.0 10.0 0.17 0.31 0.31 91 1015.1
20260506164508 54 59 1.0 9.0 0.20 0.31 0.31 91 1015.2
20260506164004 54 5 2.0 9.0 0.21 0.29 0.29 91 1015.0
20260506163504 54 350 1.0 7.0 0.24 0.29 0.29 91 1015.3
20260506163029 54 338 2.0 6.0 0.27 0.27 0.27 91 1015.3
20260506162504 54 40 3.0 6.0 0.26 0.26 0.26 91 1015.4
20260506162006 54 86 0.0 6.0 0.25 0.25 0.25 91 1015.5
20260506161518 54 89 0.0 6.0 0.23 0.23 0.23 91 1015.5
20260506161004 54 130 0.0 8.0 0.22 0.22 0.22 91 1015.2
20260506160510 54 130 2.0 8.0 0.20 0.20 0.20 91 1015.2
20260506160021 53 104 1.0 12.0 0.18 0.18 0.18 90 1015.0
20260506155507 53 360 3.0 15.0 0.16 0.16 0.16 90 1014.7
20260506155010 53 335 6.0 15.0 0.14 0.14 0.14 89 1014.4
20260506154505 53 18 5.0 12.0 0.11 0.11 0.11 88 1014.2
20260506154008 54 360 4.0 9.0 0.08 0.08 0.08 86 1016.1
20260506153504 54 277 3.0 8.0 0.05 0.05 0.05 85 1017.2
20260506153006 54 285 2.0 8.0 0.00 0.00 0.00 84 1016.6
20260506152505 54 305 1.0 8.0 0.00 0.00 0.00 84 1016.1
20260506152006 54 313 1.0 9.0 0.00 0.00 0.00 84 1015.9
20260506151513 54 350 4.0 9.0 0.00 0.00 0.00 84 1015.5
20260506151004 54 360 2.0 9.0 0.00 0.00 0.00 84 1015.4
20260506150504 54 325 3.0 11.0 0.00 0.00 0.00 83 1015.3
20260506150016 54 331 2.0 15.0 0.00 0.00 0.00 83 1015.5
20260506145510 54 352 5.0 15.0 0.00 0.00 0.00 83 1014.6
20260506145011 54 306 5.0 11.0 0.00 0.00 0.00 83 1014.7
20260506144523 54 360 2.0 10.0 0.00 0.00 0.00 83 1015.4
20260506144008 54 360 4.0 10.0 0.00 0.00 0.00 83 1015.5
20260506143508 54 360 4.0 10.0 0.00 0.00 0.00 83 1015.3
20260506143007 54 360 3.0 11.0 0.00 0.00 0.00 83 1015.0
20260506142504 54 9 4.0 11.0 0.00 0.00 0.00 83 1014.9
20260506142003 54 360 1.0 7.0 0.00 0.00 0.00 83 1014.9
20260506141513 54 314 2.0 11.0 0.00 0.00 0.00 83 1014.9
20260506141013 54 360 2.0 11.0 0.00 0.00 0.00 83 1014.7
20260506140504 54 315 5.0 11.0 0.00 0.00 0.00 83 1014.5
20260506140016 54 24 4.0 11.0 0.00 0.00 0.00 83 1014.4
20260506135511 54 348 4.0 11.0 0.00 0.00 0.00 83 1014.4
20260506135008 54 22 3.0 11.0 0.00 0.00 0.00 83 1014.4
20260506134518 54 28 3.0 11.0 0.00 0.00 0.00 83 1014.4
20260506134011 54 323 6.0 12.0 0.00 0.00 0.00 83 1014.3
20260506133505 54 311 5.0 12.0 0.00 0.00 0.00 83 1014.3
20260506133027 54 17 2.0 13.0 0.00 0.00 0.00 83 1014.1
20260506132511 54 315 3.0 13.0 0.00 0.00 0.00 83 1014.0
20260506132007 54 348 5.0 12.0 0.00 0.00 0.00 82 1014.0
20260506131508 54 49 4.0 11.0 0.00 0.00 0.00 82 1013.9
20260506131003 54 360 3.0 11.0 0.00 0.00 0.00 83 1014.0
20260506130504 54 329 2.0 11.0 0.00 0.00 0.00 83 1013.9
20260506130012 54 352 4.0 14.0 0.00 0.00 0.00 83 1013.9
20260506125502 54 298 6.0 14.0 0.00 0.00 0.00 83 1013.8
20260506125004 54 20 5.0 10.0 0.00 0.00 0.00 83 1013.8
20260506124516 55 333 1.0 10.0 0.00 0.00 0.00 83 1013.5
20260506124008 54 342 2.0 10.0 0.00 0.00 0.00 82 1013.6
20260506123504 54 25 3.0 9.0 0.00 0.00 0.00 82 1013.6
20260506123028 54 330 3.0 10.0 0.00 0.00 0.00 82 1013.5
20260506122505 54 360 2.0 10.0 0.00 0.00 0.00 82 1013.3
20260506122008 55 327 4.0 10.0 0.00 0.00 0.00 82 1013.3
20260506121533 55 28 3.0 13.0 0.00 0.00 0.00 82 1013.4
20260506121008 55 342 4.0 13.0 0.00 0.00 0.00 82 1013.5
20260506120507 55 9 4.0 13.0 0.00 0.00 0.00 82 1013.3
20260506120011 55 306 4.0 13.0 0.00 0.00 0.00 81 1013.3
20260506115506 55 360 2.0 10.0 0.00 0.00 0.00 81 1013.1
20260506115002 55 329 3.0 12.0 0.00 0.00 0.00 81 1013.1
20260506114513 55 311 4.0 12.0 0.00 0.00 0.00 80 1012.8
20260506114007 55 306 4.0 12.0 0.00 0.00 0.00 80 1012.6
20260506113506 55 360 4.0 11.0 0.00 0.00 0.00 79 1012.4
20260506113020 55 329 4.0 13.0 0.00 0.00 0.00 79 1012.5
20260506112506 55 14 5.0 13.0 0.00 0.00 0.00 79 1012.6
20260506112009 55 311 5.0 15.0 0.00 0.00 0.00 79 1012.5
20260506111523 55 303 4.0 15.0 0.00 0.00 0.00 78 1012.3
20260506111007 55 315 7.0 13.0 0.00 0.00 0.00 78 1012.3
20260506110510 56 317 6.0 11.0 0.00 0.00 0.00 77 1012.3
20260506110029 56 327 4.0 10.0 0.00 0.00 0.00 77 1012.2
20260506105509 56 348 5.0 10.0 0.00 0.00 0.00 77 1012.0
20260506105008 57 342 3.0 10.0 0.00 0.00 0.00 77 1012.0
20260506104507 57 323 1.0 7.0 0.00 0.00 0.00 77 1011.8
20260506104004 57 360 2.0 9.0 0.00 0.00 0.00 77 1011.7
20260506103504 57 316 1.0 9.0 0.00 0.00 0.00 77 1011.6
20260506103015 57 348 2.0 6.0 0.00 0.00 0.00 77 1011.5
20260506102506 57 28 2.0 7.0 0.00 0.00 0.00 76 1011.6
20260506102008 57 351 2.0 8.0 0.00 0.00 0.00 76 1011.5
20260506101521 57 51 4.0 8.0 0.00 0.00 0.00 76 1011.4
20260506101008 57 342 2.0 10.0 0.00 0.00 0.00 76 1011.2
20260506100507 57 327 1.0 10.0 0.00 0.00 0.00 76 1011.3
20260506100025 57 340 1.0 8.0 0.00 0.00 0.00 76 1011.2
20260506095508 57 317 4.0 10.0 0.00 0.00 0.00 76 1011.1
20260506095009 57 327 1.0 10.0 0.00 0.00 0.00 76 1011.2
20260506094524 57 360 4.0 10.0 0.00 0.00 0.00 76 1011.2
20260506094012 57 336 3.0 8.0 0.00 0.00 0.00 76 1011.2
20260506093510 57 306 2.0 12.0 0.00 0.00 0.00 76 1011.0
20260506093011 58 306 4.0 12.0 0.00 0.00 0.00 76 1011.1
20260506092503 58 283 3.0 10.0 0.00 0.00 0.00 76 1011.1
20260506092007 58 9 0.0 5.0 0.00 0.00 0.00 76 1011.0
20260506091516 58 318 0.0 6.0 0.00 0.00 0.00 76 1010.9
20260506091006 58 349 2.0 6.0 0.00 0.00 0.00 76 1010.8
20260506090505 58 10 1.0 8.0 0.00 0.00 0.00 76 1010.7
20260506090022 58 19 2.0 8.0 0.00 0.00 0.00 76 1010.6
20260506085507 58 340 2.0 12.0 0.00 0.00 0.00 76 1010.6
20260506085007 58 352 1.0 12.0 0.00 0.00 0.00 76 1010.4
20260506084524 58 351 3.0 9.0 0.00 0.00 0.00 76 1010.5
20260506084007 58 344 3.0 8.0 0.00 0.00 0.00 76 1010.6
20260506083507 58 319 2.0 7.0 0.00 0.00 0.00 77 1010.5
20260506083027 58 331 1.0 7.0 0.00 0.00 0.00 77 1010.3
20260506082507 58 40 2.0 6.0 0.00 0.00 0.00 77 1010.2
20260506082011 58 50 1.0 7.0 0.00 0.00 0.00 77 1010.0
20260506081513 58 46 1.0 7.0 0.00 0.00 0.00 77 1010.2
20260506081003 58 47 1.0 5.0 0.00 0.00 0.00 76 1010.3
20260506080504 58 59 1.0 7.0 0.00 0.00 0.00 76 1010.2